Regional Weather Roundup
Issued by NWS

Home | Current Version | Previous Version | Graphics & Text | Print | Product List | Glossary On
Versions: 1 2 3 4 5 6 7 8 9 10 11 12 13 14 15 16 17 18 19 20 21 22 23 24 25 26 27 28 29 30 31 32 33 34 35 36 37 38 39 40 41 42 43 44 45 46 47 48 49 50
000
ASUS43 KLSX 230057
RWRMO

WEATHER SUMMARY FOR MISSOURI
NATIONAL WEATHER SERVICE SPRINGFIELD MO
800 PM CDT FRI SEP 22 2017

NOTE: "FAIR" INDICATES FEW OR NO CLOUDS BELOW 12,000 FEET WITH NO
       SIGNIFICANT WEATHER AND/OR OBSTRUCTIONS TO VISIBILITY.
       CURRENT SKY AND/OR WEATHER CONDITIONS ARE NOT AVAILABLE FOR
       CHILLICOTHE AND FARMINGTON.

MOZ001>031-035>038-043-044-053-054-230200-
...NORTHERN AND WESTERN MISSOURI...

CITY           SKY/WX    TMP DP  RH WIND       PRES   REMARKS
KANSAS CTY INT PTCLDY    77  69  76 S8        29.94R
LEE`S SUMMIT   CLEAR     82  69  64 S8        29.96R
ST JOSEPH      CLEAR     81  70  69 S8        29.91R
CHILLICOTHE      N/A     80  70  71 S3        29.96R

$$
MOZ066>068-077>081-088>096-101>105-230200-
...SOUTHWEST MISSOURI...

CITY           SKY/WX    TMP DP  RH WIND       PRES   REMARKS
SPRINGFIELD    CLEAR     79  67  66 S3        29.98S
JOPLIN         CLEAR     80  68  66 SE5       29.95F
BRANSON        PTCLDY    81  63  54 S6        30.00S

$$
MOZ032>034-039>042-045>050-055>058-069>072-230200-
...CENTRAL MISSOURI...

CITY           SKY/WX    TMP DP  RH WIND       PRES   REMARKS
COLUMBIA       NOT AVBL
JEFFERSON CITY CLEAR     78  68  71 SE3       29.96R
ROLLA          CLEAR     74  65  73 SE6       30.01R
SEDALIA        CLEAR     80  70  71 SE3       29.98R
WARRENSBURG    CLEAR     77  68  73 SE3       29.95S

$$
MOZ051-052-059>065-230200-
...EAST CENTRAL MISSOURI...

CITY           SKY/WX    TMP DP  RH WIND       PRES   REMARKS
ST LOUIS INTL  PTCLDY    86  61  42 SE8       29.99R

$$
MOZ072>076-082>087-097>100-106>115-230200-
...SOUTH CENTRAL AND SOUTHEAST MISSOURI...

CITY           SKY/WX    TMP DP  RH WIND       PRES   REMARKS
CAPE GIRARDEAU CLEAR     79  67  66 SE3       29.98R
POPLAR BLUFF   CLEAR     77  68  73 CALM      29.98R
WEST PLAINS    CLEAR     77  65  66 CALM      30.02S

$$



USA.gov is the U.S. government's official web portal to all federal, state and local government web resources and services.